Hourly Weather Kurytyba

Today, 24 September, Thursday

Time Temperature Precipitation Wind Pressure Humidity
00:00 +14°C° 0 mm 1 mps 686 mmHg 96%
01:00 +14°C° 0 mm 1 mps 686 mmHg 95%
02:00 +14°C° 0 mm 1 mps 686 mmHg 93%
03:00 +14°C° 0 mm 1 mps 685 mmHg 93%
04:00 +14°C° 0 mm 1 mps 685 mmHg 92%
05:00 +14°C° 0 mm 1 mps 685 mmHg 92%
06:00 +14°C° 0 mm 1 mps 685 mmHg 91%
07:00 +15°C° 0 mm 0 mps 686 mmHg 81%
08:00 +16°C° 0 mm 0 mps 686 mmHg 72%
09:00 +19°C° 0 mm 0 mps 687 mmHg 61%
10:00 +23°C° 0 mm 1 mps 687 mmHg 50%
11:00 +25°C° 0 mm 1 mps 687 mmHg 40%
12:00 +28°C° 0 mm 1 mps 687 mmHg 30%
13:00 +28°C° 0 mm 1 mps 686 mmHg 30%
14:00 +28°C° 0 mm 2 mps 686 mmHg 30%
15:00 +28°C° 0 mm 2 mps 685 mmHg 30%
16:00 +26°C° 0 mm 2 mps 684 mmHg 42%
17:00 +23°C° 0 mm 2 mps 684 mmHg 55%
18:00 +20°C° 0 mm 2 mps 684 mmHg 67%
19:00 +19°C° 0 mm 2 mps 684 mmHg 76%
20:00 +17°C° 0 mm 2 mps 684 mmHg 84%
21:00 +16°C° 0 mm 2 mps 684 mmHg 92%
22:00 +16°C° 0 mm 1 mps 684 mmHg 93%
23:00 +15°C° 0 mm 1 mps 684 mmHg 94%

Tomorrow, 25 September, Friday

Time Temperature Precipitation Wind Pressure Humidity
00:00 +15°C° 0 mm 1 mps 684 mmHg 94%
01:00 +14°C° 0 mm 1 mps 683 mmHg 95%
02:00 +14°C° 0 mm 1 mps 683 mmHg 95%
03:00 +13°C° 0 mm 0 mps 683 mmHg 96%
04:00 +12°C° 0 mm 0 mps 683 mmHg 96%
05:00 +12°C° 0 mm 0 mps 683 mmHg 96%
06:00 +12°C° 0 mm 0 mps 683 mmHg 95%
07:00 +16°C° 0 mm 1 mps 684 mmHg 82%
08:00 +19°C° 0 mm 1 mps 685 mmHg 69%
09:00 +22°C° 0 mm 1 mps 686 mmHg 56%
10:00 +24°C° 0 mm 1 mps 686 mmHg 48%
11:00 +27°C° 0 mm 1 mps 686 mmHg 41%
12:00 +29°C° 0 mm 1 mps 685 mmHg 33%
13:00 +30°C° 0 mm 1 mps 685 mmHg 32%
14:00 +30°C° 0 mm 1 mps 684 mmHg 32%
15:00 +30°C° 0 mm 2 mps 683 mmHg 31%
16:00 +28°C° 0 mm 2 mps 682 mmHg 43%
17:00 +25°C° 0 mm 2 mps 682 mmHg 54%
18:00 +23°C° 0 mm 2 mps 681 mmHg 65%
19:00 +20°C° 0 mm 2 mps 682 mmHg 73%
20:00 +20°C° 0 mm 1 mps 682 mmHg 80%
21:00 +19°C° 0 mm 1 mps 682 mmHg 87%
22:00 +18°C° 0 mm 1 mps 682 mmHg 89%
23:00 +18°C° 0 mm 1 mps 682 mmHg 90%

Day after tomorrow, 26 September, Saturday

Time Temperature Precipitation Wind Pressure Humidity
00:00 +16°C° 0 mm 1 mps 682 mmHg 92%
01:00 +16°C° 0 mm 1 mps 681 mmHg 93%
02:00 +16°C° 0 mm 1 mps 681 mmHg 94%
03:00 +16°C° 0 mm 1 mps 680 mmHg 94%
04:00 +16°C° 0 mm 1 mps 680 mmHg 94%
05:00 +15°C° 0 mm 1 mps 680 mmHg 94%
06:00 +15°C° 0 mm 1 mps 680 mmHg 94%
07:00 +19°C° 0 mm 1 mps 681 mmHg 80%
08:00 +22°C° 0 mm 1 mps 682 mmHg 65%
09:00 +25°C° 0 mm 1 mps 683 mmHg 51%
10:00 +28°C° 0 mm 1 mps 683 mmHg 44%
11:00 +30°C° 0 mm 2 mps 683 mmHg 37%
12:00 +32°C° 0 mm 2 mps 683 mmHg 31%
13:00 +32°C° 0 mm 2 mps 682 mmHg 30%
14:00 +32°C° 0 mm 2 mps 681 mmHg 30%
15:00 +33°C° 0 mm 3 mps 680 mmHg 30%
16:00 +30°C° 0 mm 2 mps 680 mmHg 42%
17:00 +27°C° 0 mm 2 mps 679 mmHg 54%
18:00 +24°C° 0 mm 1 mps 678 mmHg 66%
19:00 +23°C° 0 mm 1 mps 678 mmHg 70%
20:00 +23°C° 0 mm 1 mps 679 mmHg 74%
21:00 +22°C° 0 mm 1 mps 679 mmHg 78%
22:00 +22°C° 0 mm 1 mps 679 mmHg 77%
23:00 +21°C° 0 mm 1 mps 679 mmHg 75%

27 September, Sunday

Time Temperature Precipitation Wind Pressure Humidity
00:00 +21°C° 0 mm 1 mps 679 mmHg 73%
01:00 +21°C° 0 mm 1 mps 679 mmHg 72%
02:00 +20°C° 0 mm 1 mps 678 mmHg 70%
03:00 +20°C° 0 mm 1 mps 678 mmHg 69%
04:00 +20°C° 0 mm 1 mps 678 mmHg 71%
05:00 +19°C° 0 mm 1 mps 678 mmHg 74%
06:00 +19°C° 0 mm 1 mps 678 mmHg 76%
07:00 +22°C° 0 mm 1 mps 679 mmHg 63%
08:00 +25°C° 0 mm 2 mps 680 mmHg 50%
09:00 +28°C° 0 mm 3 mps 681 mmHg 37%
10:00 +31°C° 0 mm 3 mps 681 mmHg 32%
11:00 +34°C° 0 mm 4 mps 680 mmHg 27%
12:00 +36°C° 0 mm 4 mps 680 mmHg 22%
13:00 +35°C° 0 mm 4 mps 680 mmHg 24%
14:00 +34°C° 0 mm 4 mps 679 mmHg 27%
15:00 +34°C° 0 mm 3 mps 678 mmHg 29%
16:00 +31°C° 0 mm 3 mps 678 mmHg 32%
17:00 +30°C° 0 mm 2 mps 678 mmHg 34%
18:00 +29°C° 0 mm 1 mps 678 mmHg 37%
19:00 +27°C° 0 mm 1 mps 678 mmHg 41%
20:00 +26°C° 0 mm 1 mps 678 mmHg 45%
21:00 +25°C° 0 mm 1 mps 678 mmHg 49%
22:00 +24°C° 0 mm 1 mps 678 mmHg 50%
23:00 +24°C° 0 mm 1 mps 678 mmHg 51%

28 September, Monday

Time Temperature Precipitation Wind Pressure Humidity
00:00 +23°C° 0 mm 1 mps 678 mmHg 52%
01:00 +23°C° 0 mm 1 mps 677 mmHg 53%
02:00 +23°C° 0 mm 1 mps 677 mmHg 55%
03:00 +22°C° 0 mm 1 mps 676 mmHg 56%
04:00 +22°C° 0 mm 1 mps 676 mmHg 57%
05:00 +22°C° 0 mm 1 mps 677 mmHg 58%
06:00 +21°C° 0 mm 1 mps 677 mmHg 59%
07:00 +22°C° 0.3 mm 1 mps 678 mmHg 60%
08:00 +24°C° 0.3 mm 2 mps 678 mmHg 61%
09:00 +25°C° 0.3 mm 2 mps 679 mmHg 61%
10:00 +27°C° 0.1 mm 2 mps 679 mmHg 54%
11:00 +29°C° 0.1 mm 2 mps 680 mmHg 48%
12:00 +31°C° 0.1 mm 3 mps 680 mmHg 41%
13:00 +31°C° 0.1 mm 3 mps 680 mmHg 41%
14:00 +32°C° 0.1 mm 4 mps 679 mmHg 41%
15:00 +32°C° 0.1 mm 4 mps 679 mmHg 42%
16:00 +28°C° 1.1 mm 3 mps 679 mmHg 55%
17:00 +25°C° 1.1 mm 3 mps 679 mmHg 68%
18:00 +21°C° 1.1 mm 2 mps 678 mmHg 82%
19:00 +20°C° 1.1 mm 2 mps 679 mmHg 85%
20:00 +19°C° 1.1 mm 2 mps 679 mmHg 89%
21:00 +18°C° 1.1 mm 2 mps 680 mmHg 93%
22:00 +18°C° 0.1 mm 2 mps 680 mmHg 93%
23:00 +18°C° 0.1 mm 2 mps 680 mmHg 92%

29 September, Tuesday

Time Temperature Precipitation Wind Pressure Humidity
00:00 +17°C° 0.1 mm 2 mps 681 mmHg 92%
01:00 +17°C° 0 mm 2 mps 680 mmHg 92%
02:00 +17°C° 0 mm 2 mps 680 mmHg 92%
03:00 +16°C° 0 mm 2 mps 680 mmHg 91%
04:00 +16°C° 0 mm 2 mps 680 mmHg 91%
05:00 +16°C° 0 mm 2 mps 680 mmHg 91%
06:00 +15°C° 0 mm 2 mps 681 mmHg 91%
07:00 +16°C° 0 mm 2 mps 681 mmHg 86%
08:00 +17°C° 0 mm 2 mps 682 mmHg 80%
09:00 +18°C° 0 mm 2 mps 682 mmHg 75%
10:00 +20°C° 0 mm 2 mps 682 mmHg 68%
11:00 +24°C° 0 mm 2 mps 682 mmHg 62%
12:00 +26°C° 0 mm 2 mps 683 mmHg 55%
13:00 +26°C° 0 mm 2 mps 682 mmHg 54%
14:00 +27°C° 0 mm 2 mps 681 mmHg 54%
15:00 +27°C° 0 mm 2 mps 681 mmHg 53%
16:00 +25°C° 0.2 mm 2 mps 680 mmHg 63%
17:00 +21°C° 0.2 mm 2 mps 680 mmHg 74%
18:00 +19°C° 0.2 mm 2 mps 680 mmHg 85%
19:00 +18°C° 0.2 mm 2 mps 680 mmHg 87%
20:00 +17°C° 0.2 mm 2 mps 680 mmHg 90%
21:00 +18°C° 0.2 mm 1 mps 681 mmHg 92%
22:00 +18°C° 0 mm 1 mps 681 mmHg 93%
23:00 +16°C° 0 mm 1 mps 680 mmHg 94%
Show more